�������l�o���
Date,Time,MP-1(��Sv/h),MP-2(��Sv/h),MP-3(��Sv/h),MP-4(��Sv/h),MP-5(��Sv/h),MP-6(��Sv/h),MP-7(��Sv/h),MP-8(��Sv/h),����,����(m/s),���J
2022/07/05,00:00,0.601,0.886,0.559,1.071,0.762,0.350,0.610,0.571,��,2.5,��
2022/07/05,00:10,0.602,0.882,0.559,1.070,0.762,0.349,0.607,0.571,��,2.9,��
2022/07/05,00:20,0.600,0.883,0.559,1.072,0.762,0.348,0.607,0.571,��,3.5,��
2022/07/05,00:30,0.601,0.885,0.559,1.070,0.762,0.350,0.609,0.572,��,3.8,��
2022/07/05,00:40,0.601,0.883,0.560,1.072,0.762,0.347,0.608,0.572,��,3.8,��
2022/07/05,00:50,0.601,0.883,0.559,1.073,0.762,0.349,0.608,0.572,��,3.7,��
2022/07/05,01:00,0.601,0.884,0.559,1.071,0.763,0.350,0.607,0.573,��,3.5,��
2022/07/05,01:10,0.602,0.883,0.559,1.074,0.761,0.349,0.608,0.570,��,3.2,��
2022/07/05,01:20,0.600,0.881,0.558,1.072,0.761,0.349,0.609,0.571,��,2.9,��
2022/07/05,01:30,0.602,0.882,0.559,1.071,0.764,0.349,0.608,0.572,��,3.4,��
2022/07/05,01:40,0.600,0.883,0.559,1.072,0.760,0.349,0.608,0.570,��,4.3,��
2022/07/05,01:50,0.601,0.884,0.558,1.071,0.762,0.349,0.608,0.570,��,3.9,��
2022/07/05,02:00,0.602,0.885,0.560,1.074,0.761,0.348,0.610,0.571,��,3.7,��
2022/07/05,02:10,0.601,0.882,0.557,1.071,0.762,0.349,0.609,0.571,��,3.3,��
2022/07/05,02:20,0.600,0.882,0.559,1.071,0.763,0.350,0.608,0.571,��,4.2,��
2022/07/05,02:30,0.602,0.884,0.561,1.073,0.761,0.349,0.609,0.571,��,4.1,��
2022/07/05,02:40,0.601,0.885,0.561,1.073,0.761,0.350,0.610,0.572,��,2.6,��
2022/07/05,02:50,0.600,0.884,0.559,1.073,0.764,0.348,0.608,0.572,��,1.7,��
2022/07/05,03:00,0.602,0.884,0.560,1.074,0.764,0.349,0.609,0.573,��,2.3,��
2022/07/05,03:10,0.603,0.884,0.560,1.073,0.763,0.351,0.608,0.572,��,3.6,��
2022/07/05,03:20,0.603,0.885,0.561,1.073,0.764,0.350,0.609,0.571,��,3.5,��
2022/07/05,03:30,0.601,0.884,0.560,1.071,0.761,0.348,0.609,0.571,��,3.0,��
2022/07/05,03:40,0.602,0.885,0.561,1.071,0.762,0.350,0.610,0.573,��,5.2,��
2022/07/05,03:50,0.600,0.886,0.560,1.073,0.763,0.350,0.609,0.572,��,5.1,��
2022/07/05,04:00,0.601,0.885,0.561,1.073,0.762,0.349,0.609,0.572,��,4.7,��
2022/07/05,04:10,0.600,0.883,0.561,1.074,0.763,0.350,0.610,0.571,��,4.0,��
2022/07/05,04:20,0.601,0.885,0.560,1.072,0.763,0.349,0.609,0.572,��,3.4,��
2022/07/05,04:30,0.598,0.886,0.560,1.072,0.763,0.350,0.609,0.573,��,3.3,��
2022/07/05,04:40,0.601,0.884,0.561,1.070,0.764,0.350,0.609,0.572,��,4.1,��
2022/07/05,04:50,0.601,0.885,0.560,1.074,0.763,0.350,0.609,0.572,��,4.3,��
2022/07/05,05:00,0.602,0.883,0.560,1.070,0.763,0.349,0.610,0.572,��,2.8,��
2022/07/05,05:10,0.602,0.886,0.560,1.072,0.763,0.350,0.610,0.572,��쐼,2.0,��
2022/07/05,05:20,0.601,0.886,0.562,1.074,0.762,0.351,0.609,0.572,��쐼,1.1,��
2022/07/05,05:30,0.601,0.885,0.562,1.074,0.765,0.350,0.610,0.572,��,0.8,��
2022/07/05,05:40,0.603,0.885,0.561,1.073,0.765,0.350,0.609,0.574,�쐼,0.6,��
2022/07/05,05:50,0.602,0.886,0.562,1.072,0.764,0.350,0.610,0.573,�쐼,0.9,��
2022/07/05,06:00,0.603,0.886,0.560,1.071,0.762,0.349,0.611,0.572,��쐼,0.8,��
2022/07/05,06:10,0.604,0.886,0.563,1.073,0.765,0.351,0.610,0.572,��쐼,0.9,��
2022/07/05,06:20,0.605,0.884,0.561,1.073,0.762,0.351,0.608,0.573,-,CALM,��
2022/07/05,06:30,0.602,0.883,0.560,1.075,0.763,0.351,0.610,0.573,��,0.6,��
2022/07/05,06:40,0.602,0.886,0.560,1.072,0.763,0.350,0.610,0.573,��쓌,1.7,��
2022/07/05,06:50,0.602,0.885,0.560,1.071,0.763,0.349,0.610,0.571,��쓌,1.9,��
2022/07/05,07:00,0.601,0.884,0.560,1.071,0.765,0.349,0.609,0.571,��,2.0,��
2022/07/05,07:10,0.602,0.884,0.561,1.073,0.763,0.349,0.609,0.571,��,2.0,��
2022/07/05,07:20,0.602,0.883,0.560,1.074,0.763,0.350,0.608,0.571,��쓌,2.5,��
2022/07/05,07:30,0.602,0.882,0.559,1.072,0.761,0.350,0.607,0.572,��쓌,3.0,��
2022/07/05,07:40,0.601,0.879,0.559,1.073,0.762,0.349,0.609,0.570,��쓌,4.4,��
2022/07/05,07:50,0.600,0.880,0.559,1.073,0.761,0.347,0.608,0.568,��쓌,3.0,��
2022/07/05,08:00,0.599,0.880,0.558,1.072,0.759,0.348,0.607,0.568,��쓌,2.8,��
2022/07/05,08:10,0.600,0.878,0.557,1.070,0.761,0.346,0.609,0.569,��쓌,4.0,��
2022/07/05,08:20,0.599,0.879,0.557,1.068,0.760,0.347,0.607,0.568,��,3.0,��
2022/07/05,08:30,0.599,0.879,0.557,1.071,0.760,0.348,0.608,0.568,��,3.6,��
2022/07/05,08:40,0.600,0.880,0.557,1.069,0.761,0.349,0.607,0.569,��쓌,3.2,��
2022/07/05,08:50,0.597,0.878,0.556,1.069,0.760,0.348,0.608,0.569,��쓌,2.8,��
2022/07/05,09:00,0.599,0.879,0.558,1.069,0.761,0.346,0.607,0.568,��쓌,2.2,��
2022/07/05,09:10,0.598,0.877,0.557,1.069,0.761,0.347,0.607,0.569,��쓌,3.4,��
2022/07/05,09:20,0.599,0.878,0.557,1.070,0.761,0.347,0.608,0.568,��쓌,4.0,��
2022/07/05,09:30,0.598,0.879,0.558,1.070,0.759,0.347,0.608,0.568,��쓌,4.3,��
2022/07/05,09:40,0.600,0.881,0.559,1.069,0.760,0.347,0.608,0.568,��쓌,3.9,��
2022/07/05,09:50,0.599,0.878,0.557,1.070,0.760,0.347,0.607,0.568,��쓌,3.8,��
2022/07/05,10:00,0.600,0.878,0.559,1.070,0.761,0.348,0.608,0.569,��쓌,4.3,��
2022/07/05,10:10,0.599,0.879,0.559,1.072,0.762,0.349,0.607,0.568,��,4.5,��
2022/07/05,10:20,0.599,0.877,0.559,1.073,0.760,0.348,0.609,0.568,��쓌,3.3,��
2022/07/05,10:30,0.600,0.878,0.560,1.072,0.762,0.347,0.608,0.568,��쓌,3.4,��
2022/07/05,10:40,0.599,0.879,0.560,1.072,0.762,0.348,0.608,0.569,�쓌,4.4,��
2022/07/05,10:50,0.600,0.881,0.559,1.070,0.761,0.347,0.608,0.568,��쓌,5.3,��
2022/07/05,11:00,0.601,0.880,0.559,1.072,0.760,0.348,0.606,0.569,��쓌,5.5,��
2022/07/05,11:10,0.601,0.880,0.559,1.073,0.762,0.349,0.608,0.570,��쓌,5.9,��
2022/07/05,11:20,0.601,0.880,0.557,1.070,0.760,0.348,0.609,0.567,��쓌,5.4,��
2022/07/05,11:30,0.601,0.881,0.558,1.071,0.764,0.349,0.608,0.570,��쓌,4.7,��
2022/07/05,11:40,0.600,0.879,0.557,1.067,0.763,0.348,0.609,0.569,��쓌,5.1,��
2022/07/05,11:50,0.601,0.881,0.557,1.070,0.762,0.349,0.608,0.569,��쓌,4.9,��
2022/07/05,12:00,0.599,0.881,0.557,1.069,0.762,0.348,0.607,0.569,��쓌,6.2,��
2022/07/05,12:10,0.600,0.881,0.558,1.069,0.761,0.349,0.608,0.569,��쓌,6.9,��
2022/07/05,12:20,0.602,0.880,0.557,1.069,0.762,0.348,0.608,0.569,��쓌,6.6,��
2022/07/05,12:30,0.601,0.883,0.558,1.069,0.764,0.349,0.608,0.570,��쓌,6.6,��
2022/07/05,12:40,0.601,0.881,0.558,1.067,0.763,0.349,0.608,0.569,��,5.4,��
2022/07/05,12:50,0.602,0.881,0.557,1.070,0.763,0.349,0.608,0.569,��,4.2,�L
2022/07/05,13:00,0.602,0.880,0.559,1.071,0.763,0.350,0.609,0.570,��,4.3,�L
2022/07/05,13:10,0.601,0.880,0.560,1.071,0.765,0.349,0.607,0.568,��쓌,3.4,�L
2022/07/05,13:20,0.602,0.880,0.562,1.071,0.765,0.350,0.608,0.570,��쓌,4.0,��
2022/07/05,13:30,0.601,0.879,0.560,1.069,0.765,0.348,0.608,0.571,��쓌,4.7,��
2022/07/05,13:40,0.600,0.880,0.559,1.072,0.764,0.350,0.608,0.571,��쓌,4.5,��
2022/07/05,13:50,0.601,0.880,0.559,1.072,0.766,0.350,0.609,0.569,�쓌,4.1,��
2022/07/05,14:00,0.602,0.878,0.560,1.072,0.767,0.351,0.609,0.569,��쓌,4.4,��
2022/07/05,14:10,0.599,0.879,0.560,1.074,0.766,0.349,0.609,0.569,��쓌,5.1,��
2022/07/05,14:20,0.601,0.878,0.561,1.072,0.766,0.351,0.610,0.570,�쓌,4.1,��
2022/07/05,14:30,0.599,0.881,0.561,1.073,0.765,0.351,0.609,0.571,�쓌,3.8,��
2022/07/05,14:40,0.598,0.881,0.558,1.074,0.762,0.350,0.609,0.567,�쓌,3.6,��
2022/07/05,14:50,0.601,0.879,0.560,1.075,0.765,0.348,0.609,0.568,��쓌,3.7,��
2022/07/05,15:00,0.600,0.880,0.559,1.074,0.767,0.347,0.608,0.568,�쓌,3.1,��
2022/07/05,15:10,0.601,0.879,0.560,1.075,0.765,0.347,0.607,0.569,�쓌,2.3,��
2022/07/05,15:20,0.598,0.880,0.560,1.073,0.765,0.349,0.607,0.569,��쓌,3.9,��
2022/07/05,15:30,0.600,0.880,0.559,1.073,0.764,0.347,0.607,0.569,��쓌,4.5,��
2022/07/05,15:40,0.600,0.881,0.560,1.074,0.766,0.348,0.609,0.570,��쓌,5.7,��
2022/07/05,15:50,0.601,0.880,0.559,1.073,0.766,0.348,0.609,0.568,��쓌,6.1,��
2022/07/05,16:00,0.601,0.882,0.560,1.072,0.763,0.348,0.610,0.569,��쓌,4.9,��
2022/07/05,16:10,0.601,0.881,0.558,1.075,0.764,0.350,0.610,0.570,��,3.8,��
2022/07/05,16:20,0.599,0.882,0.560,1.074,0.764,0.349,0.610,0.572,��쓌,3.2,��
2022/07/05,16:30,0.603,0.881,0.559,1.073,0.765,0.349,0.610,0.571,��,3.2,��
2022/07/05,16:40,0.601,0.881,0.560,1.074,0.765,0.350,0.609,0.573,��쓌,4.4,��
2022/07/05,16:50,0.601,0.882,0.559,1.074,0.766,0.349,0.611,0.573,��쓌,5.1,��
2022/07/05,17:00,0.601,0.885,0.558,1.075,0.765,0.350,0.609,0.570,��쓌,5.8,��
2022/07/05,17:10,0.601,0.883,0.560,1.073,0.764,0.349,0.609,0.572,��쓌,4.9,��
2022/07/05,17:20,0.600,0.883,0.558,1.073,0.765,0.347,0.608,0.571,��,4.5,��
2022/07/05,17:30,0.601,0.883,0.558,1.074,0.762,0.349,0.609,0.572,��,4.6,��
2022/07/05,17:40,0.601,0.883,0.559,1.075,0.765,0.349,0.610,0.571,��,5.2,��
2022/07/05,17:50,0.600,0.884,0.560,1.074,0.766,0.350,0.610,0.572,��,6.4,��
2022/07/05,18:00,0.601,0.882,0.559,1.072,0.765,0.349,0.609,0.571,��,7.1,��
2022/07/05,18:10,0.601,0.881,0.559,1.074,0.763,0.348,0.609,0.572,��,6.7,��
2022/07/05,18:20,0.600,0.884,0.559,1.072,0.764,0.351,0.610,0.572,��쓌,6.2,��
2022/07/05,18:30,0.602,0.882,0.559,1.075,0.767,0.349,0.608,0.573,��쓌,7.2,��
2022/07/05,18:40,0.601,0.883,0.560,1.073,0.765,0.349,0.611,0.572,��,5.1,��
2022/07/05,18:50,0.601,0.882,0.559,1.074,0.765,0.349,0.610,0.573,��,3.9,��
2022/07/05,19:00,0.599,0.883,0.561,1.074,0.765,0.348,0.609,0.572,��쓌,4.2,��
2022/07/05,19:10,0.599,0.885,0.560,1.073,0.765,0.349,0.609,0.572,��쓌,4.5,��
2022/07/05,19:20,0.602,0.881,0.559,1.074,0.764,0.351,0.610,0.570,��,3.2,��
2022/07/05,19:30,0.600,0.883,0.560,1.073,0.764,0.350,0.608,0.572,��,3.3,��
2022/07/05,19:40,0.602,0.883,0.559,1.073,0.765,0.348,0.610,0.571,��,2.3,��
2022/07/05,19:50,0.602,0.884,0.560,1.074,0.765,0.350,0.610,0.570,��,2.2,��
2022/07/05,20:00,0.600,0.885,0.560,1.074,0.763,0.350,0.608,0.573,��,2.8,��
2022/07/05,20:10,0.601,0.885,0.559,1.071,0.765,0.350,0.609,0.571,��쐼,2.0,��
2022/07/05,20:20,0.603,0.886,0.561,1.075,0.765,0.350,0.608,0.573,��,1.2,��
2022/07/05,20:30,0.602,0.884,0.561,1.073,0.764,0.349,0.609,0.572,�쐼,0.6,��
2022/07/05,20:40,0.603,0.884,0.561,1.075,0.763,0.350,0.609,0.573,-,CALM,��
2022/07/05,20:50,0.602,0.884,0.561,1.074,0.765,0.348,0.610,0.572,���k��,1.1,��
2022/07/05,21:00,0.602,0.885,0.560,1.075,0.767,0.348,0.609,0.572,�k�k��,1.2,��
2022/07/05,21:10,0.603,0.883,0.560,1.074,0.764,0.349,0.608,0.572,�k��,1.4,��
2022/07/05,21:20,0.601,0.885,0.560,1.074,0.764,0.349,0.609,0.572,�k��,1.2,��
2022/07/05,21:30,0.600,0.887,0.559,1.074,0.765,0.349,0.608,0.571,�k�k��,2.9,��
2022/07/05,21:40,0.603,0.884,0.559,1.076,0.765,0.349,0.609,0.571,�k�k��,3.4,��
2022/07/05,21:50,0.602,0.886,0.560,1.075,0.765,0.349,0.610,0.571,�k�k��,5.0,��
2022/07/05,22:00,0.601,0.885,0.558,1.074,0.764,0.349,0.608,0.572,�k�k��,5.7,��
2022/07/05,22:10,0.601,0.885,0.559,1.073,0.764,0.349,0.610,0.572,�k��,3.9,��
2022/07/05,22:20,0.603,0.884,0.560,1.073,0.765,0.349,0.610,0.573,�k��,2.3,��
2022/07/05,22:30,0.602,0.883,0.560,1.074,0.764,0.349,0.609,0.572,�k�k��,2.3,��
2022/07/05,22:40,0.602,0.885,0.562,1.071,0.766,0.349,0.609,0.573,�k�k��,2.3,��
2022/07/05,22:50,0.600,0.884,0.560,1.074,0.766,0.351,0.610,0.573,�k�k��,2.6,��
2022/07/05,23:00,0.603,0.886,0.559,1.073,0.765,0.349,0.610,0.572,�k�k��,2.5,��
2022/07/05,23:10,0.602,0.884,0.560,1.073,0.763,0.349,0.610,0.572,�k�k��,2.3,��
2022/07/05,23:20,0.601,0.884,0.559,1.074,0.766,0.350,0.610,0.572,�k,2.3,��
2022/07/05,23:30,0.601,0.885,0.559,1.075,0.764,0.351,0.609,0.572,�k�k��,1.2,��
2022/07/05,23:40,0.601,0.883,0.559,1.076,0.764,0.349,0.610,0.572,�k�k��,0.8,��
2022/07/05,23:50,0.601,0.883,0.560,1.074,0.766,0.349,0.609,0.571,�k�k��,0.6,��
